Location: Deer Creek
(37.1206°N, 96.1894°W)
Time: 19:36:41
(UTC+00:00)

Daily predictions for brighter satellites

Satellite Brightness Start Highest point End
(mag) Time Altitude Azimuth Time Altitude Azimuth Time Altitude Azimuth
Chandra Rocket (1) 3.5 12:02:59 16° SW 12:04:54 22° S 12:07:14 10° SE
H-2A R/B 2.5 12:02:17 10° N 12:05:59 75° WNW 12:09:41 10° SSW
Nadezhda 4 Rocket 4.3 12:02:00 10° N 12:08:06 66° E 12:14:09 10° SSE
SL-4 R/B 4.4 12:06:04 10° S 12:08:58 22° SE 12:12:02 10° ENE
SJ-7 4.5 12:05:35 10° NNE 12:09:45 81° ESE 12:13:50 10° S
ATLAS CENTAUR R/B 4.3 12:09:43 10° SSE 12:12:15 17° ESE 12:14:44 10° ENE
Cosmos 1844 Rocket 3.7 12:13:00 23° W 12:13:07 23° W 12:17:25 10° SSW
SAR-Lupe-4 3.4 12:11:49 10° S 12:15:23 74° WSW 12:18:44 12° NNW
Cosmos 1892 Rocket 3.7 12:12:46 14° NNW 12:16:21 48° W 12:20:33 10° SSW
PSLV R/B 4.0 12:13:01 10° NNE 12:16:59 78° ESE 12:21:00 10° S
CZ-4B R/B 3.2 12:15:35 10° SSW 12:16:57 18° SW 12:16:57 18° SW
Cosmos 2278 Rocket 2.7 12:13:11 10° NNW 12:18:49 62° ENE 12:24:24 10° SSE
Cosmos 540 Rocket 3.3 12:14:52 10° SSW 12:19:58 77° WNW 12:25:06 10° NNE
Cosmos 990 Rocket 3.9 12:16:53 10° NNW 12:21:54 61° WSW 12:26:56 10° S
Cosmos 2333 Rocket 3.3 12:24:13 21° WNW 12:25:23 22° NW 12:29:42 10° N
Cosmos 2237 Rocket 2.1 12:20:01 10° SSW 12:25:41 77° WNW 12:31:23 10° NNE
PSLV R/B 3.9 12:21:54 10° S 12:25:55 57° W 12:29:58 10° NNW
COSMO-SKYMED 1 3.3 12:22:26 10° SSW 12:26:15 30° W 12:29:01 16° NW
SAR-Lupe-1 4.2 12:23:02 10° S 12:26:32 52° W 12:30:02 10° NNW
Cosmos 1461 3.6 12:23:26 11° WSW 12:27:41 39° NW 12:32:09 10° NNE
Cosmos 1953 2.4 12:24:39 10° SSW 12:28:33 53° W 12:32:27 10° N
USA 276 2.4 12:28:30 27° WNW 12:29:52 49° SW 12:32:54 10° SE
Cosmos 921 Rocket 3.9 12:29:14 10° SW 12:32:50 26° WNW 12:36:24 10° N
MOS 1 Rocket 3.8 12:28:14 10° S 12:33:08 44° W 12:37:50 10° NNW
CZ-2C R/B 3.4 12:28:27 10° SSE 12:33:28 53° ENE 12:38:34 10° N
Cosmos 2219 Rocket 3.3 12:31:48 17° W 12:33:53 21° NW 12:38:02 10° N
Cosmos 858 Rocket 4.4 12:29:45 10° NNW 12:35:00 82° WSW 12:40:12 10° SSE
Meteor 2-13 Rocket 4.4 12:29:17 10° N 12:35:27 74° W 12:41:33 10° S
SJ 16-02 2.8 12:36:29 17° W 12:37:24 18° W 12:40:22 10° SW
Cosmos 1763 Rocket 4.4 12:38:13 10° WSW 12:42:23 24° WNW 12:46:37 10° N
NOSS 3-2 (A) 4.0 12:38:34 10° SSW 12:43:53 57° ESE 12:49:51 10° NE
GPS 2-04 Rocket1 3.7 12:40:52 14° W 12:44:08 39° SSW 12:48:01 10° SE
COSMOS 2428 3.9 12:40:45 10° WSW 12:44:57 21° NW 12:49:09 10° N
Cosmos 44 Rocket 3.7 12:39:50 10° NNW 12:45:04 72° ENE 12:50:15 10° SE
Cosmos 1898 Rocket 3.9 12:41:27 10° NNW 12:46:18 42° WSW 12:51:08 10° S
Cosmos 841 Rocket 3.7 12:41:40 10° SW 12:46:34 46° WNW 12:51:31 10° N
ATLAS 5 CENTAUR R/B 1.9 12:44:30 13° NW 12:46:47 69° SW 12:53:49 10° SSE
Cosmos 1544 Rocket 4.2 12:43:12 10° SW 12:47:02 31° WNW 12:50:54 10° NNW
YAOGAN 6 3.3 12:44:40 10° N 12:48:00 32° WNW 12:51:19 10° SW
BREEZE-M DEB (TANK) 3.0 12:42:20 10° SW 12:48:12 67° SE 12:50:35 10° NE
Cosmos 1689 Rocket 3.3 12:46:36 10° SSW 12:48:57 22° W 12:51:10 11° NW
Cosmos 1908 3.5 12:45:48 10° SSW 12:49:25 43° W 12:53:04 10° N
USA 306 4.2 12:46:40 10° SSW 12:50:42 44° SE 12:54:45 10° ENE
Cosmos 1570 Rocket 4.1 12:46:08 10° SW 12:51:12 51° WNW 12:56:18 10° N
NOAA 12 4.1 12:46:55 10° NNE 12:52:13 87° WNW 12:57:31 10° SSW
Okean 1-7 Rocket 4.4 12:49:11 10° NNW 12:53:07 30° W 12:57:00 10° SSW
ERS-2 3.9 12:54:31 10° SW 12:56:35 14° W 12:58:40 10° WNW
Cosmos 1980 4.2 12:53:00 10° SW 12:58:13 38° WNW 13:03:28 10° N
OAO 2 Rocket 3.5 12:53:57 10° W 12:58:49 70° S 13:03:45 10° E
Cosmos 1606 Rocket 4.5 12:56:08 10° S 13:00:19 52° E 13:04:31 10° NNE
CORIOLIS 4.2 12:55:31 10° NNE 13:00:53 89° E 13:06:14 10° SSW
NOAA 11 4.3 12:56:25 10° NNE 13:01:55 86° ESE 13:07:22 10° SSW
Lacrosse 4 Rocket 1.4 13:02:37 10° SSW 13:06:47 81° WNW 13:11:05 10° NNE
Cosmos 2208 Rocket 4.4 13:03:38 10° SW 13:08:49 45° WNW 13:14:02 10° N
Cosmos 1626 Rocket 4.2 13:06:05 10° NNW 13:10:12 37° W 13:14:17 10° SSW
